Wind_Speed
10 10 10 10 10 10 10 10 10 10 10 11 11 12 11 11 10 10 11 11 12 11 11 12 12 12 12 13 13 12 12 12 12 12 12 12 12 12 11 11 11 10 11 10
11 11 11 11 11 11 11 11 11 12 12 12 12 13 12 12 11 10 10 11 11 11 12 12 12 13 12 12 13 13 13 12 13 13 13 13 13 13 13 12 12 12 11 11
12 12 12 12 13 13 12 12 13 13 13 13 13 13 12 12 11 11 11 11 11 11 11 12 11 12 12 13 13 13 13 14 14 14 14 14 14 14 14 14 14 14 13 13
13 13 13 13 13 13 13 13 14 14 14 13 13 12 13 13 13 13 13 13 12 12 12 12 12 13 13 14 15 15 14 15 15 14 14 14 14 14 14 14 14 15 14 13
12 13 13 13 14 14 14 14 15 14 14 14 13 14 13 13 14 14 14 14 14 14 13 13 13 14 14 14 15 15 15 15 15 15 15 15 15 15 15 15 15 15 15 15
12 12 12 13 13 13 14 15 15 15 15 15 15 15 14 13 14 15 15 16 16 15 14 14 15 15 15 16 16 16 16 16 16 16 16 16 16 16 16 15 15 15 15 15
13 12 13 13 13 13 14 15 16 16 16 16 15 15 14 13 13 14 15 15 16 17 16 16 16 17 17 17 17 17 17 17 17 17 17 18 17 17 16 16 16 16 16 15
13 13 13 13 14 14 14 15 16 17 17 17 16 16 15 14 14 15 15 15 17 18 18 18 17 18 18 18 19 19 18 18 18 18 18 18 18 18 18 17 17 17 17 16
15 15 14 14 14 15 15 15 16 17 17 18 17 17 16 16 15 15 16 16 18 19 19 19 19 19 19 19 19 19 19 19 19 19 19 19 18 18 18 19 18 18 18 18
17 17 16 16 16 16 16 16 17 18 19 19 18 19 18 16 17 17 17 17 17 19 20 21 21 20 20 19 19 19 20 20 19 20 19 19 19 19 19 20 19 19 19 18
17 18 17 17 17 16 16 16 17 18 19 20 20 19 17 17 17 18 17 17 18 18 19 21 21 21 20 20 20 20 20 20 20 19 19 19 20 20 20 20 20 19 19 19
18 19 19 18 17 18 18 18 18 18 19 20 21 19 18 19 18 18 19 18 18 18 19 19 20 20 20 21 21 21 21 20 20 20 20 20 20 21 21 21 21 21 21 21
19 19 19 19 18 19 19 20 20 20 21 21 21 19 19 20 20 19 19 19 18 19 19 19 19 20 20 21 21 22 22 21 21 21 21 21 21 22 22 22 22 21 22 22
20 20 20 20 20 20 20 20 21 22 22 22 21 21 20 20 19 19 19 19 19 20 20 20 19 20 20 21 21 22 22 21 21 21 21 22 22 22 23 23 22 21 21 22
20 21 21 21 21 22 22 21 21 22 22 22 21 21 20 19 19 20 20 20 21 21 21 21 20 20 20 21 22 22 22 22 22 22 22 22 22 22 22 22 22 21 21 22
22 22 22 22 22 23 23 22 22 23 23 23 23 21 21 20 21 22 21 21 22 22 21 21 21 21 21 22 22 23 22 23 23 23 23 22 22 23 23 22 22 22 22 23
23 24 24 24 23 24 23 21 22 23 23 23 23 21 21 22 22 22 23 23 22 22 21 21 22 21 21 22 23 23 23 23 23 23 23 23 22 23 23 23 23 23 23 24
25 25 26 25 25 25 22 21 22 23 22 22 22 22 23 23 23 23 23 24 24 24 23 22 21 21 22 22 23 23 23 22 22 23 23 22 23 23 23 23 23 24 24 24
25 26 26 26 25 25 23 21 21 22 22 22 23 23 24 24 25 25 24 25 25 25 25 23 23 23 22 22 22 23 23 23 23 23 22 22 23 23 22 23 23 24 24 25
25 26 27 26 26 25 23 23 22 23 22 22 23 24 24 25 25 25 25 25 25 26 26 25 25 24 24 24 23 23 23 24 23 23 23 23 23 23 23 23 23 24 24 25
25 26 26 26 27 26 25 24 23 24 23 23 24 24 24 25 25 26 26 26 26 25 26 26 25 25 24 24 24 24 24 23 23 23 24 24 24 24 24 24 24 24 24 25
26 27 27 27 27 26 25 26 26 26 25 26 25 25 25 26 25 26 26 26 26 25 25 25 25 25 24 24 24 24 24 24 23 23 23 24 23 23 24 24 24 24 25 25
27 28 28 28 28 27 27 27 27 28 28 27 27 27 27 27 26 26 26 26 26 25 25 25 25 24 24 24 25 24 24 25 25 24 23 24 24 23 23 23 24 24 25 26
29 29 30 30 29 29 28 28 29 29 29 28 29 28 28 28 27 27 27 26 25 25 25 26 25 26 25 25 25 25 25 26 25 26 25 24 24 24 24 25 25 25 26 27
28 30 31 31 29 29 29 30 30 30 30 30 30 29 29 29 28 27 27 27 27 25 25 26 26 26 26 25 25 25 26 25 25 26 26 26 26 25 25 25 26 26 27 27
28 30 31 30 30 30 29 29 30 30 30 30 30 30 30 30 29 28 28 27 28 27 26 26 26 26 26 26 25 25 26 26 26 26 27 27 27 27 27 27 27 28 28 28
Wind_Direction
265 266 269 271 271 270 269 269 269 270 272 271 269 267 264 265 266 265 268 272 279 279 280 280 278 279 282 283 281 282 285 287 290 290 291 293 292 292 292 289 289 289 288 284
267 267 268 269 269 270 271 271 271 271 273 274 272 271 272 268 261 265 269 276 277 278 279 282 280 277 279 279 278 279 282 284 285 286 289 291 291 292 291 288 287 287 285 282
268 267 268 269 269 269 271 272 271 271 271 272 272 271 271 268 261 263 265 272 273 272 274 277 278 280 279 275 277 280 282 283 284 284 287 289 289 291 291 290 290 287 284 282
265 265 266 267 266 268 269 270 270 271 271 271 271 271 269 270 266 265 269 271 273 272 273 277 279 281 281 275 274 277 279 280 282 284 286 287 286 288 290 289 288 287 285 281
267 268 268 267 268 269 270 271 270 270 272 274 275 275 274 272 272 274 275 275 273 274 277 278 279 279 279 276 274 275 278 280 281 282 283 284 283 284 286 287 285 284 283 283
267 268 268 268 268 269 271 271 269 268 269 272 277 278 279 280 276 276 277 277 276 279 282 281 280 281 281 279 275 275 276 278 278 278 279 280 281 281 283 283 283 282 282 282
270 269 268 268 270 270 270 269 267 268 270 272 275 278 279 279 278 278 277 277 279 282 283 281 280 279 279 278 276 276 276 276 276 275 276 276 277 279 280 280 280 280 279 280
275 273 271 270 271 273 272 269 268 271 273 273 272 274 276 278 277 276 277 278 277 278 280 278 278 279 278 276 274 275 276 276 275 274 274 274 275 277 277 277 278 280 279 279
278 277 274 272 270 269 270 271 272 272 273 273 273 274 274 278 278 277 277 277 275 275 276 278 278 276 275 273 273 274 276 277 276 275 274 274 275 276 276 278 278 278 278 277
277 277 275 270 267 267 269 271 272 272 273 274 276 278 279 280 278 278 278 278 278 277 277 278 278 276 274 271 271 274 276 277 277 276 274 274 275 275 274 276 277 275 275 273
275 275 273 270 268 266 267 269 272 271 272 275 277 279 282 282 281 281 280 277 275 276 277 277 277 276 273 271 272 274 275 276 277 276 276 275 274 273 274 275 275 276 273 270
274 274 272 270 268 265 266 268 272 273 273 274 278 280 280 280 281 281 280 276 274 273 275 278 278 276 276 274 273 274 276 277 277 277 277 277 276 273 273 273 272 273 272 271
273 273 272 269 267 265 265 266 269 274 275 277 280 281 278 279 281 281 279 275 273 274 275 276 279 278 279 276 274 274 276 277 276 276 276 277 277 275 274 272 272 272 272 272
271 271 272 273 273 269 267 268 270 273 277 278 279 280 282 282 280 278 277 275 274 275 276 273 275 276 277 277 276 275 276 277 276 277 277 276 275 275 273 272 272 271 271 271
268 269 272 273 272 272 270 269 269 270 274 276 277 279 283 283 280 279 278 276 275 276 276 274 273 276 277 278 278 277 276 276 277 277 279 277 275 273 272 272 273 271 270 270
267 269 269 270 270 271 269 268 268 271 274 275 276 279 281 280 278 279 280 277 276 276 275 274 274 276 276 276 277 277 276 276 277 276 277 277 276 274 272 271 271 270 268 268
269 269 270 272 272 271 268 269 270 272 274 276 276 278 279 279 279 279 280 279 276 276 273 273 274 275 274 275 276 276 275 276 278 278 277 276 276 275 274 271 270 269 268 268
270 269 270 272 270 269 272 269 272 273 274 275 276 277 278 280 280 280 280 280 278 277 277 275 275 276 274 274 275 276 276 276 277 277 278 277 275 276 275 273 272 270 269 269
272 270 269 270 270 270 269 270 273 273 274 276 278 280 281 281 280 280 280 279 278 277 276 276 276 274 274 274 274 274 274 274 275 276 276 275 275 275 275 273 272 271 270 269
270 268 268 268 269 269 270 271 273 272 273 277 279 280 281 281 281 281 280 279 278 277 276 274 274 274 273 273 274 273 273 272 273 274 273 274 275 275 275 275 273 272 271 270
265 264 264 265 267 269 271 272 273 272 274 276 277 279 280 281 282 282 281 281 278 276 275 274 273 273 273 273 273 273 274 271 271 273 274 275 276 276 275 276 275 275 275 274
264 262 262 263 265 270 271 272 273 274 275 277 279 280 280 281 282 283 282 282 281 277 275 273 272 273 272 272 273 273 274 272 271 272 274 275 276 276 276 277 276 276 276 276
263 262 261 263 267 269 269 270 272 273 275 276 278 279 280 280 282 282 283 283 282 278 275 273 272 270 271 272 273 273 271 271 272 273 274 276 276 277 278 278 278 278 278 277
264 262 262 263 266 267 269 271 273 273 274 275 278 278 279 281 282 282 283 284 282 279 277 275 275 272 271 273 271 272 271 271 272 274 274 275 277 278 278 278 278 279 278 277
264 262 263 263 265 266 267 270 272 273 273 273 275 275 276 278 279 280 282 283 281 281 278 275 274 273 271 272 271 271 271 270 272 273 275 277 278 277 277 277 278 279 279 279
264 264 264 265 266 266 267 269 272 272 273 273 273 273 275 276 277 279 280 281 282 281 278 276 273 273 272 272 272 272 272 271 271 273 274 276 278 277 277 278 279 278 279 279
Height
5854 5854 5854 5854 5854 5853 5853 5853 5853 5853 5853 5853 5852 5852 5852 5852 5851 5851 5851 5852 5851 5851 5851 5850 5850 5850 5849 5849 5848 5848 5847 5846 5845 5844 5843 5842 5841 5840 5839 5838 5837 5837 5836 5835
5852 5851 5851 5850 5850 5850 5850 5850 5850 5850 5849 5849 5849 5849 5849 5848 5848 5848 5848 5848 5848 5847 5847 5847 5846 5846 5845 5845 5844 5844 5843 5842 5841 5841 5840 5839 5838 5837 5836 5835 5834 5833 5833 5832
5848 5849 5848 5847 5847 5847 5847 5847 5846 5846 5846 5845 5845 5845 5845 5845 5845 5845 5845 5845 5844 5844 5844 5843 5843 5842 5842 5841 5841 5840 5839 5839 5838 5837 5836 5835 5835 5834 5833 5832 5831 5830 5829 5829
5844 5844 5844 5844 5843 5843 5843 5843 5842 5842 5842 5842 5842 5841 5842 5841 5841 5841 5841 5841 5841 5840 5840 5839 5839 5838 5838 5837 5837 5836 5836 5835 5834 5833 5832 5832 5831 5830 5830 5828 5827 5827 5826 5825
5841 5840 5840 5840 5840 5839 5839 5839 5839 5838 5838 5838 5838 5837 5838 5837 5837 5837 5837 5836 5836 5836 5836 5835 5835 5834 5834 5833 5833 5832 5832 5831 5830 5829 5828 5828 5827 5826 5826 5825 5824 5823 5822 5822
5837 5836 5836 5836 5836 5835 5835 5835 5834 5834 5833 5834 5833 5833 5834 5833 5833 5832 5832 5832 5831 5831 5831 5831 5831 5830 5829 5829 5828 5828 5827 5827 5826 5825 5824 5823 5823 5822 5821 5820 5819 5819 5818 5818
5833 5833 5832 5832 5831 5831 5831 5831 5831 5829 5829 5829 5829 5828 5830 5829 5829 5828 5827 5827 5827 5826 5826 5826 5826 5825 5824 5824 5823 5823 5822 5822 5821 5820 5820 5819 5818 5818 5817 5816 5815 5814 5814 5813
5828 5829 5828 5828 5827 5827 5827 5827 5827 5826 5825 5825 5824 5823 5825 5824 5823 5822 5822 5822 5821 5821 5821 5821 5820 5820 5819 5818 5818 5817 5817 5817 5816 5815 5815 5814 5813 5813 5812 5811 5810 5810 5809 5809
5824 5824 5824 5823 5823 5823 5822 5821 5822 5821 5820 5819 5819 5819 5820 5819 5818 5818 5817 5817 5816 5816 5816 5815 5814 5814 5813 5813 5812 5812 5812 5811 5810 5810 5809 5808 5808 5807 5807 5806 5805 5805 5804 5804
5819 5819 5820 5819 5819 5818 5818 5817 5816 5815 5814 5814 5814 5814 5815 5814 5813 5812 5812 5811 5811 5810 5810 5809 5808 5808 5807 5807 5807 5806 5806 5805 5804 5804 5803 5803 5802 5802 5801 5800 5800 5799 5799 5798
5814 5814 5814 5814 5813 5813 5813 5813 5811 5810 5809 5809 5808 5811 5809 5808 5807 5806 5806 5805 5805 5805 5804 5803 5802 5802 5801 5801 5800 5800 5799 5799 5798 5798 5797 5797 5797 5796 5796 5795 5794 5794 5793 5793
5809 5808 5808 5808 5808 5807 5807 5807 5806 5806 5805 5803 5802 5806 5803 5802 5801 5800 5800 5799 5799 5799 5798 5797 5796 5795 5795 5795 5794 5794 5793 5793 5792 5792 5791 5791 5790 5790 5790 5789 5789 5788 5788 5787
5803 5802 5802 5802 5804 5802 5801 5801 5800 5800 5799 5797 5797 5800 5797 5796 5795 5795 5794 5793 5793 5792 5792 5791 5790 5789 5789 5789 5789 5788 5787 5787 5786 5786 5785 5785 5784 5784 5783 5783 5782 5782 5781 5781
5797 5796 5797 5796 5796 5795 5795 5795 5795 5794 5793 5792 5792 5792 5791 5790 5789 5788 5788 5787 5787 5786 5785 5785 5784 5784 5783 5783 5783 5782 5781 5781 5780 5779 5779 5778 5778 5777 5777 5776 5775 5775 5775 5774
5790 5790 5790 5790 5790 5789 5789 5789 5788 5787 5787 5786 5786 5785 5785 5784 5783 5782 5781 5781 5780 5780 5779 5778 5778 5777 5777 5776 5776 5775 5775 5774 5774 5773 5772 5771 5771 5770 5770 5769 5769 5769 5769 5768
5783 5783 5783 5783 5783 5782 5781 5782 5782 5781 5781 5780 5779 5779 5779 5777 5776 5775 5775 5774 5773 5773 5772 5772 5771 5770 5770 5769 5769 5769 5768 5767 5767 5766 5765 5764 5763 5763 5762 5762 5762 5762 5762 5762
5776 5776 5776 5776 5776 5774 5775 5776 5775 5775 5774 5774 5773 5774 5772 5771 5770 5769 5768 5767 5766 5766 5765 5765 5764 5764 5763 5763 5762 5762 5761 5760 5759 5758 5758 5757 5756 5756 5755 5755 5755 5755 5755 5755
5769 5769 5768 5768 5769 5767 5771 5769 5768 5767 5767 5767 5766 5766 5765 5764 5763 5762 5761 5760 5759 5758 5758 5758 5757 5757 5756 5756 5755 5754 5754 5753 5752 5751 5751 5750 5749 5749 5748 5747 5747 5747 5747 5747
5762 5761 5760 5760 5760 5760 5762 5762 5762 5761 5760 5760 5759 5759 5758 5757 5756 5756 5754 5753 5752 5751 5751 5750 5750 5749 5748 5748 5747 5747 5747 5746 5745 5744 5743 5743 5742 5741 5740 5740 5739 5739 5739 5739
5754 5753 5753 5753 5752 5753 5756 5756 5755 5755 5754 5754 5753 5752 5751 5750 5749 5749 5747 5746 5744 5743 5743 5742 5742 5741 5741 5740 5739 5739 5739 5738 5738 5737 5736 5735 5735 5734 5733 5732 5732 5731 5731 5730
5746 5745 5745 5745 5745 5746 5748 5748 5748 5748 5749 5747 5746 5745 5744 5742 5741 5741 5739 5738 5736 5736 5735 5734 5734 5733 5733 5732 5732 5731 5731 5730 5730 5729 5729 5728 5727 5726 5726 5725 5724 5723 5722 5722
5738 5738 5738 5738 5738 5741 5740 5740 5740 5740 5739 5738 5737 5737 5736 5735 5733 5732 5731 5730 5729 5728 5727 5726 5726 5726 5725 5725 5724 5723 5723 5723 5722 5722 5721 5721 5719 5718 5718 5717 5715 5715 5714 5714
5729 5730 5729 5730 5732 5732 5731 5731 5731 5730 5730 5729 5729 5728 5727 5726 5725 5724 5723 5722 5721 5720 5719 5719 5718 5718 5717 5717 5717 5716 5715 5715 5714 5714 5713 5713 5712 5711 5710 5709 5708 5707 5706 5705
5721 5721 5721 5722 5723 5723 5723 5723 5722 5722 5721 5721 5721 5720 5719 5718 5717 5716 5715 5714 5713 5712 5711 5711 5710 5710 5710 5709 5709 5708 5707 5707 5706 5706 5705 5705 5704 5703 5702 5701 5700 5699 5697 5696
5713 5712 5712 5713 5714 5714 5714 5714 5713 5713 5713 5712 5712 5711 5710 5710 5709 5708 5707 5706 5705 5704 5704 5703 5702 5702 5701 5701 5700 5700 5699 5698 5698 5697 5697 5696 5695 5694 5693 5692 5691 5690 5689 5687
5704 5703 5704 5704 5705 5705 5705 5705 5704 5704 5704 5703 5702 5702 5702 5701 5701 5700 5699 5698 5697 5696 5696 5695 5694 5694 5693 5692 5692 5691 5691 5690 5690 5689 5688 5688 5687 5686 5685 5684 5683 5681 5680 5678